HAZ2138 ZSWZ-ZSHC

Flight info

Callsign HAZ2138
Flight time 0h 31m
Altitude 16700
Route REMIM5X REMIM B221 SUPAR
Aircraft A359/H-SDE2E3GHIJ3J4J5LM1ORWXY/LB1D1

Departure

Time 2026-05-05 11:43
Airport Wenzhou Longwan International Airport (ZSWZ)

Arrival

Time 2026-05-05 12:14
Airport Hangzhou Xiaoshan International Airport (ZSHC)
Time Latitude Longitude Altitude Speed Heading
2026-05-05 11:32 27.90853 120.84719 23 ft 0 kts 341°
2026-05-05 11:37 27.90850 120.84720 23 ft 2 kts 341°
2026-05-05 11:37 27.90835 120.84728 25 ft 2 kts 331°
2026-05-05 11:37 27.90822 120.84738 25 ft 2 kts 317°
2026-05-05 11:38 27.90811 120.84752 23 ft 2 kts 298°
2026-05-05 11:38 27.90806 120.84770 24 ft 2 kts 273°
2026-05-05 11:38 27.90807 120.84788 23 ft 2 kts 248°
2026-05-05 11:38 27.90814 120.84800 25 ft 1 kts 220°
2026-05-05 11:39 27.90814 120.84802 25 ft 0 kts 211°
2026-05-05 11:39 27.90788 120.84784 24 ft 12 kts 210°
2026-05-05 11:40 27.90671 120.84724 24 ft 24 kts 186°
2026-05-05 11:40 27.90524 120.84716 23 ft 20 kts 200°
2026-05-05 11:40 27.90401 120.84644 25 ft 20 kts 208°
2026-05-05 11:40 27.90268 120.84559 24 ft 25 kts 210°
2026-05-05 11:41 27.90101 120.84463 24 ft 30 kts 207°
2026-05-05 11:41 27.89941 120.84366 25 ft 23 kts 208°
2026-05-05 11:41 27.89792 120.84276 22 ft 25 kts 208°
2026-05-05 11:41 27.89657 120.84303 21 ft 23 kts 118°
2026-05-05 11:42 27.89618 120.84464 23 ft 20 kts 54°
2026-05-05 11:42 27.89760 120.84561 25 ft 43 kts 28°
2026-05-05 11:42 27.90244 120.84853 26 ft 115 kts 28°
2026-05-05 11:42 27.91140 120.85387 54 ft 171 kts 29°
2026-05-05 11:43 27.92206 120.85989 726 ft 172 kts 28°
2026-05-05 11:43 27.93281 120.86609 1443 ft 175 kts 30°
2026-05-05 11:43 27.94396 120.87283 1942 ft 194 kts 31°
2026-05-05 11:43 27.95646 120.88074 2341 ft 216 kts 31°
2026-05-05 11:44 27.96987 120.88906 3017 ft 223 kts 31°
2026-05-05 11:44 27.98356 120.89744 3811 ft 224 kts 29°
2026-05-05 11:44 27.99735 120.90580 4595 ft 228 kts 29°
2026-05-05 11:44 28.01203 120.91329 5065 ft 246 kts 17°
2026-05-05 11:45 28.02980 120.91487 5465 ft 268 kts 354°
2026-05-05 11:45 28.04866 120.91172 6130 ft 278 kts 349°
2026-05-05 11:45 28.06792 120.90776 6930 ft 284 kts 348°
2026-05-05 11:45 28.08744 120.90370 7859 ft 285 kts 348°
2026-05-05 11:46 28.10693 120.89960 8856 ft 285 kts 348°
2026-05-05 11:46 28.12643 120.89552 9870 ft 286 kts 347°
2026-05-05 11:46 28.14625 120.89131 10575 ft 298 kts 348°
2026-05-05 11:46 28.16732 120.88684 10951 ft 319 kts 347°
2026-05-05 11:47 28.18962 120.88212 11314 ft 340 kts 347°
2026-05-05 11:47 28.21333 120.87712 11865 ft 352 kts 347°
2026-05-05 11:47 28.23764 120.87199 12585 ft 358 kts 347°
2026-05-05 11:47 28.26230 120.86681 13348 ft 363 kts 347°
2026-05-05 11:48 28.31250 120.85618 14824 ft 371 kts 347°
2026-05-05 11:48 28.33797 120.85084 15540 ft 374 kts 347°
2026-05-05 11:48 28.36367 120.84537 16240 ft 377 kts 346°
2026-05-05 11:49 28.38889 120.84000 16653 ft 380 kts 346°
2026-05-05 11:49 28.41551 120.83434 16772 ft 390 kts 346°
2026-05-05 11:49 28.44248 120.82860 16785 ft 398 kts 346°
2026-05-05 11:49 28.46976 120.82284 16783 ft 400 kts 346°
2026-05-05 11:50 28.49708 120.81706 16777 ft 400 kts 346°
2026-05-05 11:50 28.52446 120.81127 16772 ft 400 kts 346°
2026-05-05 11:50 28.55179 120.80547 16784 ft 400 kts 347°
2026-05-05 11:50 28.57910 120.79968 16782 ft 399 kts 347°
2026-05-05 11:51 28.60597 120.79396 16772 ft 398 kts 347°
2026-05-05 11:51 28.63319 120.78816 16766 ft 398 kts 347°
2026-05-05 11:51 28.66041 120.78236 16771 ft 398 kts 347°
2026-05-05 11:51 28.68764 120.77656 16773 ft 398 kts 347°
2026-05-05 11:52 28.71483 120.77077 16767 ft 398 kts 347°
2026-05-05 11:52 28.74201 120.76498 16769 ft 398 kts 347°
2026-05-05 11:52 28.76922 120.75917 16767 ft 398 kts 347°
2026-05-05 11:52 28.79639 120.75333 16769 ft 398 kts 347°
2026-05-05 11:53 28.82326 120.74759 16772 ft 398 kts 347°
2026-05-05 11:53 28.85051 120.74223 16756 ft 398 kts 351°
2026-05-05 11:53 28.87825 120.74094 16759 ft 400 kts 359°
2026-05-05 11:53 28.90605 120.74256 16759 ft 401 kts
2026-05-05 11:54 28.93389 120.74556 16755 ft 402 kts
2026-05-05 11:54 28.96162 120.74906 16752 ft 402 kts
2026-05-05 11:54 28.98945 120.75260 16753 ft 402 kts
2026-05-05 11:54 29.01722 120.75595 16752 ft 401 kts
2026-05-05 11:55 29.04500 120.75909 16754 ft 401 kts
2026-05-05 11:55 29.07240 120.76201 16753 ft 401 kts
2026-05-05 11:55 29.10023 120.76491 16750 ft 400 kts
2026-05-05 11:55 29.12793 120.76776 16740 ft 400 kts
2026-05-05 11:56 29.15568 120.76907 16750 ft 399 kts 356°
2026-05-05 11:56 29.18289 120.76414 16739 ft 396 kts 342°
2026-05-05 11:56 29.20812 120.75177 16749 ft 394 kts 330°
2026-05-05 11:56 29.23208 120.73656 16733 ft 393 kts 329°
2026-05-05 11:57 29.25550 120.72126 16728 ft 393 kts 328°
2026-05-05 11:57 29.27916 120.70566 16727 ft 393 kts 328°
2026-05-05 11:57 29.30284 120.68999 16737 ft 393 kts 328°
2026-05-05 11:57 29.32647 120.67433 16735 ft 393 kts 328°
2026-05-05 11:58 29.35016 120.65861 16722 ft 393 kts 329°
2026-05-05 11:58 29.37373 120.64295 16603 ft 391 kts 328°
2026-05-05 11:58 29.39718 120.62736 16354 ft 389 kts 328°
2026-05-05 11:58 29.42065 120.61174 16101 ft 390 kts 328°
2026-05-05 11:59 29.44406 120.59615 15852 ft 389 kts 329°
2026-05-05 11:59 29.46734 120.58066 15524 ft 383 kts 329°
2026-05-05 11:59 29.48987 120.56566 15042 ft 377 kts 329°
2026-05-05 11:59 29.51247 120.55059 14513 ft 373 kts 329°
2026-05-05 12:00 29.53428 120.53603 13985 ft 369 kts 329°
2026-05-05 12:00 29.55681 120.52099 13406 ft 365 kts 329°
2026-05-05 12:00 29.57864 120.50642 12837 ft 361 kts 329°
2026-05-05 12:00 29.60016 120.49205 12323 ft 356 kts 329°
2026-05-05 12:01 29.62146 120.47783 11792 ft 352 kts 329°
2026-05-05 12:01 29.64246 120.46378 11254 ft 348 kts 329°
2026-05-05 12:01 29.66311 120.44996 11014 ft 336 kts 329°
2026-05-05 12:01 29.68263 120.43690 10902 ft 322 kts 329°
2026-05-05 12:02 29.70153 120.42426 10750 ft 308 kts 329°
2026-05-05 12:02 29.71967 120.41211 10629 ft 295 kts 329°
2026-05-05 12:02 29.73704 120.40047 10495 ft 283 kts 329°
2026-05-05 12:02 29.75377 120.38927 10378 ft 276 kts 329°
2026-05-05 12:03 29.77033 120.37815 10162 ft 275 kts 329°
2026-05-05 12:03 29.78681 120.36708 9879 ft 275 kts 329°
2026-05-05 12:03 29.80383 120.35564 9684 ft 290 kts 329°
2026-05-05 12:03 29.82114 120.34401 9502 ft 290 kts 329°
2026-05-05 12:04 29.83861 120.33229 8986 ft 292 kts 329°
2026-05-05 12:04 29.85611 120.32053 8568 ft 290 kts 329°
2026-05-05 12:04 29.87344 120.30889 8238 ft 287 kts 328°
2026-05-05 12:04 29.89062 120.29733 7918 ft 285 kts 329°
2026-05-05 12:05 29.90765 120.28586 7595 ft 283 kts 329°
2026-05-05 12:05 29.92464 120.27443 7266 ft 282 kts 329°
2026-05-05 12:05 29.94151 120.26308 6950 ft 280 kts 328°
2026-05-05 12:05 29.95831 120.25178 6631 ft 279 kts 327°
2026-05-05 12:06 29.97510 120.24043 6312 ft 279 kts 327°
2026-05-05 12:06 29.99163 120.22929 5979 ft 278 kts 327°
2026-05-05 12:06 30.00831 120.21803 5678 ft 278 kts 328°
2026-05-05 12:06 30.02497 120.20678 5375 ft 278 kts 328°
2026-05-05 12:07 30.04131 120.19578 5245 ft 265 kts 328°
2026-05-05 12:07 30.05707 120.18574 5142 ft 253 kts 331°
2026-05-05 12:07 30.07243 120.17684 5031 ft 242 kts 332°
2026-05-05 12:07 30.08714 120.16835 4920 ft 230 kts 331°
2026-05-05 12:08 30.10124 120.16031 4762 ft 224 kts 334°
2026-05-05 12:08 30.11639 120.15852 4724 ft 227 kts 14°
2026-05-05 12:08 30.12980 120.16770 4610 ft 227 kts 46°
2026-05-05 12:08 30.13898 120.18238 4357 ft 225 kts 64°
2026-05-05 12:09 30.14572 120.19867 4003 ft 224 kts 68°
2026-05-05 12:09 30.15270 120.21483 3649 ft 226 kts 64°
2026-05-05 12:09 30.16001 120.23095 3310 ft 227 kts 66°
2026-05-05 12:09 30.16706 120.24693 3018 ft 218 kts 66°
2026-05-05 12:10 30.17390 120.26247 2728 ft 217 kts 67°
2026-05-05 12:10 30.18072 120.27789 2431 ft 211 kts 67°
2026-05-05 12:10 30.18710 120.29230 2172 ft 197 kts 68°
2026-05-05 12:10 30.19311 120.30594 1919 ft 184 kts 69°
2026-05-05 12:11 30.19873 120.31862 1678 ft 171 kts 70°
2026-05-05 12:11 30.20395 120.33048 1456 ft 161 kts 70°
2026-05-05 12:11 30.20889 120.34171 1257 ft 153 kts 70°
2026-05-05 12:11 30.21359 120.35235 1065 ft 145 kts 71°
2026-05-05 12:12 30.21809 120.36264 886 ft 143 kts 70°
2026-05-05 12:12 30.22238 120.37301 747 ft 143 kts 70°
2026-05-05 12:12 30.22692 120.38309 545 ft 140 kts 65°
2026-05-05 12:12 30.23151 120.39285 369 ft 137 kts 66°
2026-05-05 12:13 30.23567 120.40242 193 ft 132 kts 65°
2026-05-05 12:13 30.23978 120.41203 57 ft 135 kts 63°
2026-05-05 12:13 30.24400 120.42148 43 ft 132 kts 63°
2026-05-05 12:13 30.24756 120.42954 38 ft 73 kts 61°
2026-05-05 12:14 30.24969 120.43427 38 ft 63 kts 63°
2026-05-05 12:14 30.25093 120.43753 37 ft 22 kts 97°
2026-05-05 12:14 30.24994 120.43836 38 ft 17 kts 186°
2026-05-05 12:14 30.24918 120.43742 38 ft 16 kts 240°
2026-05-05 12:15 30.24870 120.43636 38 ft 12 kts 243°
2026-05-05 12:15 30.24841 120.43569 38 ft 8 kts 243°
2026-05-05 12:15 30.24805 120.43489 38 ft 15 kts 243°
2026-05-05 12:15 30.24747 120.43354 39 ft 21 kts 243°
2026-05-05 12:16 30.24636 120.43281 38 ft 21 kts 151°
2026-05-05 12:16 30.24518 120.43263 38 ft 19 kts 238°
2026-05-05 12:16 30.24452 120.43117 38 ft 22 kts 243°
2026-05-05 12:16 30.24380 120.42952 38 ft 25 kts 243°
2026-05-05 12:17 30.24296 120.42778 38 ft 25 kts 241°
2026-05-05 12:17 30.24208 120.42677 38 ft 16 kts 176°
2026-05-05 12:17 30.24151 120.42695 38 ft 0 kts 158°